Flag for Germany Weather past 2 weeks in Dietzenbach, Hesse, Germany

Now
75 °F

Scattered clouds.


Feels Like: 77 °F
Forecast: 51 / 72 °F
Wind: 3 mph from Northeast

Location: Frankfurt / M-Flughafen


UV Index: 3 (Moderate)

Visibility: 25 mi


Pressure: 29.93 "Hg

Humidity: 26%

Dew point: 38 °F

Location of DietzenbachLocation

Historic Weather in Dietzenbach

°F

Dietzenbach temperature yesterday

Maximum temperature yesterday: 72 °F (at 3:00 PM)
Minimum temperature yesterday: 47 °F (at 3:00 AM)
Average temperature yesterday: 59 °F

Past Weeks' High & Low Weather Summary

 TemperatureHumidityPressure
High75 °F (Apr 24, 6:00 PM)94% (Apr 23, 5:00 AM)30.44 "Hg (Apr 23, 5:00 AM)
Low33 °F (Apr 16, 6:00 AM)26% (Apr 17, 6:00 PM)29.59 "Hg (Apr 21, 4:00 PM)
Average54 °F60%30.03 "Hg
* Reported Apr 9 6:00 PM — Apr 24 6:00 PM, Dietzenbach, Weather by CustomWeather, © 2014

Note: Actual official high and low records may vary slightly from our data, if they occured in-between our weather recording intervals... More about our weather records

Advertising

Historic Weather Conditions — Data for Previous 24 hours

 ConditionsComfort  
Time TempWeatherWind HumidityBarometerVisibility
6:00 PM
Apr 24
75 °FPartly sunny.3 mph29%29.95 "Hg25 mi
5:00 PM73 °FPartly sunny.3 mph33%29.97 "Hg25 mi
4:00 PM75 °FPartly sunny.3 mph33%29.98 "Hg25 mi
3:00 PM74 °FPartly sunny.3 mph35%30.01 "Hg25 mi
2:00 PM74 °FPartly sunny.2 mph33%30.03 "Hg25 mi
1:00 PM72 °FPartly sunny.2 mph38%30.05 "Hg17 mi
12:00 PM69 °FScattered clouds.2 mph44%30.08 "Hg16 mi
10:00 AM63 °FPartly sunny.2 mph60%30.11 "Hg16 mi
9:00 AM59 °FPartly sunny.3 mph67%30.11 "Hg17 mi
8:00 AM54 °FScattered clouds.1 mph79%30.12 "Hg17 mi
7:00 AM52 °FScattered clouds.1 mph82%30.11 "Hg17 mi
6:00 AM53 °FOvercast.2 mph81%30.09 "Hg19 mi
4:00 AM53 °FPassing clouds.1 mph79%30.10 "Hg19 mi
3:00 AM54 °FPassing clouds.1 mph75%30.10 "Hg19 mi
2:00 AM56 °FPassing clouds.2 mph69%30.11 "Hg19 mi
1:00 AM57 °FOvercast.2 mph68%30.11 "Hg19 mi
12:00 AM57 °FPassing clouds.3 mph68%30.11 "Hg19 mi
10:00 PM
Apr 23
61 °FPassing clouds.5 mph59%30.09 "Hg19 mi
9:00 PM63 °FPassing clouds.7 mph52%30.09 "Hg19 mi
8:00 PM69 °FPartly sunny.3 mph41%30.05 "Hg19 mi
7:00 PM70 °FPartly sunny.2 mph40%30.05 "Hg19 mi
Weather by CustomWeather, © 2014

See weather overview